Location: Sternwarte Zollern-Alb
(48.2880°N, 8.6780°E)
Time: 02:33:26
(UTC+02:00)

ISS - Pass Details

Date: 22 April 2026
Orbit: 414 x 424 km, 51.6° (Epoch: 19 May)

Event Time Altitude Azimuth Distance (km) Brightness Sun altitude
Exits shadow 03:56:39 12° 129° (SE) 1,395 -1.1 -20.7°
Drops below altitude 10° 03:57:38 10° 111° (ESE) 1,496 -0.7 -20.6°
Sets 04:00:51 0° 78° (ENE) 2,369 0.9 -20.3°
